Vorticity
8 8 58 30 9 8 5 11 4 9 -1 -50 7 14 13 11 6 3 3 6 3 1 7 6 9 8 5 2 1 1 2 4 5 6 6 7 5 5 6 5 5 5 5
24 9 3 50 21 7 6 -4 7 7 -11 45 -21 -53 56 -1 16 -5 5 4 5 1 5 8 6 9 6 5 3 2 2 3 3 2 2 5 4 5 5 5 4 4 4
5 11 25 37 33 10 6 5 4 -15 -16 12 -2 17 -16 3 -12 19 3 5 5 3 1 7 5 8 7 6 5 4 3 3 2 5 6 5 3 3 4 3 4 4 4
13 2 7 42 68 20 6 2 4 -2 34 2 -2 33 33 -34 23 -1 4 4 5 6 -0 3 7 4 7 6 6 5 4 4 5 3 3 4 6 7 7 6 5 3 4
30 26 4 -9 43 56 9 3 4 22 -3 7 6 -33 -14 11 5 -3 3 4 5 7 2 1 5 6 6 6 6 6 5 4 3 4 4 3 3 2 0 -0 2 5 4
14 23 26 25 39 63 18 9 -8 15 13 22 -20 12 -32 63 -9 16 -18 5 4 5 6 1 1 4 6 6 6 7 6 6 4 5 4 4 5 6 6 7 9 6 3
19 21 15 7 20 58 42 10 -10 -2 11 6 24 -40 11 37 -5 -15 7 4 4 3 5 6 2 1 6 6 5 6 5 6 6 5 4 4 4 4 4 3 1 2 6
33 33 53 10 22 73 60 11 -16 19 9 -1 -44 45 -57 -17 14 -13 31 5 6 4 4 6 7 3 1 3 7 6 5 5 5 5 5 5 5 4 4 4 5 5 4
7 10 46 38 26 28 82 10 -26 7 6 15 -6 -20 43 -19 -24 46 19 2 5 3 3 4 6 7 3 2 2 3 6 6 6 5 5 5 4 5 4 4 4 5 5
2 19 28 46 46 31 72 10 -20 3 14 10 9 5 -3 -3 22 9 -1 23 5 4 3 3 4 7 6 6 5 5 4 4 5 4 4 5 5 5 5 4 5 5 5
5 16 42 32 41 47 78 12 11 -13 6 31 6 4 -9 11 26 -9 13 18 5 4 3 5 7 6 7 6 3 2 3 2 3 4 5 5 5 6 6 5 5 5 6
10 3 45 58 22 34 83 6 -6 -18 -1 0 31 -3 -41 5 -13 30 -3 -5 8 5 6 5 4 5 5 6 7 5 3 4 3 4 5 6 6 6 5 5 5 5 6
27 20 46 53 24 37 77 11 1 2 12 -11 8 5 2 14 -11 1 12 3 7 4 22 5 0 5 6 6 7 7 6 7 7 7 5 4 5 5 5 5 5 5 6
-13 27 9 61 20 45 81 15 1 10 -2 18 21 39 -52 -3 -2 27 9 29 12 12 28 7 1 5 5 5 6 6 8 9 7 6 5 5 5 5 5 4 6 6 7
-0 47 50 33 25 41 86 10 17 12 19 34 -14 -33 32 0 -36 9 16 -6 21 -8 14 1 -5 3 8 4 5 7 7 6 7 7 5 6 5 6 6 6 5 7 8
30 5 -12 50 31 52 83 6 9 22 16 -5 11 -19 -4 9 -16 2 -2 21 29 -9 9 5 19 -8 14 2 2 5 6 5 3 5 7 5 6 6 7 7 8 8 -3
-0 -4 28 59 42 61 79 24 2 -35 14 8 14 8 19 2 10 51 26 13 48 5 -5 15 12 30 9 8 4 5 11 2 5 5 5 6 3 7 8 7 6 4 12
36 -13 58 48 45 62 46 17 -7 7 -11 -6 1 -1 13 5 -27 16 16 17 28 31 10 11 2 23 24 -6 5 5 3 9 5 7 3 2 6 7 4 8 5 10 21
30 1 12 53 51 70 34 -16 19 15 18 -9 6 10 -4 -6 -6 -17 -14 -26 45 29 42 2 -10 -0 40 3 12 7 -2 9 4 1 5 8 5 4 8 6 14 16 3
13 103 37 41 35 61 30 -36 14 8 -1 6 12 -1 3 -51 19 31 -24 -4 -2 59 -10 10 30 -27 16 -7 -8 7 4 -17 -2 1 8 9 4 4 9 10 11 9 10
14 10 55 7 76 7 36 -10 0 3 9 9 18 2 7 -20 50 6 26 1 3 -27 27 17 -4 12 19 2 44 -4 45 17 18 0 9 11 6 -2 3 13 -6 -9 -12
24 6 62 28 -31 42 13 14 29 7 4 19 29 14 15 -27 16 -8 20 34 2 19 29 13 7 24 24 21 8 36 -2 -26 10 12 17 8 10 -2 -17 4 -3 -12 43
47 47 -6 78 -24 48 4 -3 5 5 9 2 31 25 28 -61 -68 25 7 -1 -36 -3 8 28 17 20 17 50 26 31 2 1 36 9 25 12 17 13 -6 12 47 53 29
42 4 13 -62 67 38 5 -4 6 14 -0 27 18 26 6 -19 -17 -36 7 14 1 18 31 2 25 36 0 -5 4 9 15 8 5 11 10 9 16 0 13 13 13 13 4
66 6 25 20 41 -16 -9 8 5 -3 -30 19 13 20 19 -5 60 -2 19 -3 32 14 -17 -10 -11 12 33 29 7 3 25 19 6 20 18 17 14 9 27 27 7 0 6
32 5 45 29 28 -11 27 -3 21 -14 -3 20 16 8 15 -26 2 44 31 -18 -21 -4 -6 -2 21 5 20 16 12 6 9 13 17 16 14 20 19 16 13 8 4 -7 -1
Height
5507 5513 5521 5531 5544 5561 5577 5596 5616 5632 5648 5662 5671 5664 5696 5716 5721 5732 5743 5753 5765 5773 5783 5790 5797 5804 5811 5819 5825 5831 5836 5841 5847 5851 5854 5857 5859 5862 5864 5866 5867 5869 5870
5491 5497 5505 5512 5525 5541 5556 5580 5596 5616 5632 5645 5658 5665 5676 5688 5712 5723 5736 5744 5755 5767 5776 5785 5792 5799 5806 5813 5821 5827 5833 5838 5844 5847 5850 5854 5857 5859 5862 5863 5865 5866 5867
5479 5483 5489 5498 5506 5524 5539 5558 5577 5593 5612 5631 5648 5663 5671 5677 5688 5710 5726 5735 5746 5760 5769 5777 5786 5793 5800 5808 5816 5823 5829 5834 5838 5843 5848 5850 5853 5856 5858 5860 5862 5863 5864
5465 5468 5472 5480 5488 5504 5520 5539 5563 5578 5595 5613 5637 5651 5660 5679 5677 5704 5716 5726 5738 5752 5762 5771 5779 5787 5794 5801 5810 5816 5823 5828 5833 5838 5842 5846 5850 5852 5855 5857 5859 5860 5861
5447 5451 5457 5461 5469 5481 5499 5517 5542 5561 5579 5604 5619 5636 5652 5666 5682 5694 5705 5719 5731 5743 5755 5765 5773 5781 5789 5795 5803 5810 5818 5823 5829 5834 5838 5841 5846 5848 5851 5852 5855 5856 5858
5433 5436 5439 5442 5450 5460 5477 5498 5524 5545 5565 5588 5610 5627 5645 5653 5666 5680 5693 5710 5723 5735 5746 5758 5766 5775 5782 5790 5797 5804 5810 5818 5824 5829 5834 5837 5842 5845 5847 5849 5851 5853 5854
5422 5420 5418 5423 5431 5440 5458 5481 5502 5525 5552 5574 5601 5615 5631 5644 5653 5665 5686 5701 5714 5727 5738 5752 5760 5770 5778 5784 5791 5798 5804 5812 5819 5824 5828 5833 5837 5840 5843 5844 5846 5848 5850
5407 5403 5399 5402 5411 5423 5438 5462 5485 5512 5539 5568 5585 5602 5623 5638 5648 5660 5678 5696 5709 5723 5734 5745 5757 5765 5773 5781 5788 5793 5799 5806 5812 5818 5823 5828 5832 5835 5837 5839 5841 5844 5845
5393 5385 5380 5382 5394 5403 5420 5445 5472 5499 5526 5553 5576 5597 5619 5631 5643 5658 5671 5688 5700 5717 5728 5738 5751 5760 5768 5776 5783 5788 5794 5802 5807 5813 5818 5823 5826 5829 5832 5834 5836 5839 5840
5380 5370 5365 5365 5376 5390 5406 5429 5458 5489 5517 5546 5572 5594 5614 5630 5640 5652 5666 5677 5694 5710 5720 5730 5742 5752 5760 5768 5776 5782 5788 5795 5802 5807 5813 5817 5820 5823 5825 5828 5831 5832 5834
5367 5358 5351 5352 5363 5376 5394 5422 5448 5475 5509 5542 5565 5587 5607 5621 5634 5648 5661 5675 5691 5702 5713 5725 5735 5744 5752 5760 5768 5776 5782 5790 5796 5801 5807 5810 5814 5817 5819 5822 5825 5825 5827
5356 5351 5342 5342 5353 5366 5385 5414 5445 5475 5502 5537 5558 5578 5597 5616 5628 5640 5656 5670 5682 5697 5709 5718 5728 5736 5744 5752 5760 5769 5777 5784 5790 5795 5800 5805 5808 5810 5813 5816 5817 5819 5821
5352 5347 5340 5339 5346 5359 5377 5408 5439 5475 5500 5534 5552 5572 5595 5609 5623 5634 5651 5665 5680 5691 5700 5710 5720 5728 5738 5745 5754 5761 5768 5776 5782 5788 5792 5797 5800 5803 5806 5808 5810 5812 5814
5350 5343 5339 5337 5343 5354 5372 5403 5441 5473 5504 5529 5548 5568 5590 5604 5619 5634 5647 5661 5673 5683 5693 5704 5713 5721 5730 5740 5748 5753 5760 5768 5774 5780 5784 5789 5793 5795 5798 5801 5804 5806 5807
5348 5339 5334 5335 5342 5350 5371 5409 5447 5477 5502 5520 5543 5562 5582 5599 5615 5626 5640 5652 5664 5675 5687 5697 5707 5711 5723 5732 5740 5746 5753 5760 5767 5773 5777 5781 5784 5787 5791 5794 5797 5799 5800
5353 5345 5336 5335 5340 5350 5375 5416 5449 5478 5501 5520 5537 5557 5576 5594 5610 5623 5637 5646 5657 5669 5680 5690 5698 5707 5717 5725 5732 5738 5745 5752 5759 5765 5768 5771 5776 5780 5784 5787 5789 5791 5792
5359 5350 5341 5339 5341 5353 5381 5417 5449 5475 5498 5514 5537 5562 5579 5596 5612 5623 5633 5641 5650 5662 5672 5682 5692 5701 5710 5717 5725 5730 5738 5745 5750 5756 5761 5763 5768 5773 5776 5778 5780 5782 5783
5367 5359 5348 5342 5348 5363 5395 5426 5457 5478 5497 5518 5541 5559 5577 5593 5605 5618 5627 5636 5644 5653 5665 5675 5686 5693 5702 5708 5714 5721 5730 5736 5741 5748 5752 5756 5759 5764 5767 5769 5772 5774 5776
5378 5371 5365 5354 5361 5377 5405 5438 5466 5487 5504 5526 5545 5562 5580 5591 5603 5614 5624 5631 5638 5645 5655 5665 5675 5684 5693 5699 5706 5713 5721 5727 5733 5737 5742 5747 5751 5754 5758 5761 5763 5765 5767
5390 5380 5383 5379 5386 5401 5423 5457 5476 5493 5513 5534 5549 5562 5575 5590 5601 5609 5619 5627 5635 5641 5650 5659 5667 5677 5687 5694 5701 5705 5712 5718 5724 5729 5734 5739 5742 5745 5750 5752 5754 5756 5757
5406 5401 5402 5405 5407 5424 5447 5471 5488 5507 5523 5538 5551 5563 5575 5590 5598 5607 5616 5622 5631 5639 5647 5652 5660 5669 5676 5684 5690 5698 5704 5711 5716 5720 5725 5731 5734 5738 5740 5742 5745 5746 5747
5420 5421 5422 5423 5435 5446 5464 5483 5500 5515 5529 5542 5554 5566 5581 5590 5598 5608 5615 5622 5626 5636 5641 5647 5654 5661 5668 5675 5683 5688 5696 5703 5708 5712 5716 5721 5725 5729 5732 5734 5735 5735 5740
5434 5434 5434 5440 5445 5464 5479 5493 5507 5522 5536 5548 5557 5567 5581 5589 5596 5609 5610 5616 5624 5632 5637 5643 5649 5655 5661 5667 5675 5681 5687 5694 5698 5704 5708 5712 5716 5720 5724 5725 5727 5731 5733
5445 5450 5451 5456 5462 5476 5489 5504 5518 5530 5541 5551 5559 5568 5578 5582 5590 5599 5607 5613 5618 5629 5633 5640 5644 5649 5656 5663 5668 5674 5680 5685 5690 5694 5698 5701 5707 5710 5713 5716 5718 5722 5723
5456 5459 5461 5470 5478 5488 5499 5510 5521 5534 5543 5551 5562 5570 5576 5586 5591 5598 5604 5610 5616 5623 5631 5636 5640 5647 5652 5657 5664 5669 5673 5677 5681 5686 5690 5693 5697 5701 5703 5706 5709 5712 5715
5469 5475 5477 5482 5487 5503 5511 5520 5528 5538 5545 5553 5562 5569 5577 5584 5589 5594 5601 5609 5614 5619 5625 5632 5636 5641 5648 5652 5657 5662 5665 5669 5674 5679 5683 5686 5690 5693 5695 5699 5703 5705 5707